Regional Weather Roundup
Issued by NWS

Home | Current Version | Previous Version | Graphics & Text | Print | Product List | Glossary On
Versions: 1 2 3 4 5 6 7 8 9 10 11 12 13 14 15 16 17 18 19 20 21 22 23 24 25 26 27 28 29 30 31 32 33 34 35 36 37 38 39 40 41 42 43 44 45 46 47 48 49 50
176
ASUS43 KLSX 080010
RWRMO

WEATHER SUMMARY FOR MISSOURI
NATIONAL WEATHER SERVICE SPRINGFIELD MO
600 PM CST WED DEC 07 2016

NOTE: "FAIR" INDICATES FEW OR NO CLOUDS BELOW 12,000 FEET WITH NO
       SIGNIFICANT WEATHER AND/OR OBSTRUCTIONS TO VISIBILITY.
       CURRENT SKY AND/OR WEATHER CONDITIONS ARE NOT AVAILABLE FOR
       CHILLICOTHE AND FARMINGTON.

MOZ001>031-035>038-043-044-053-054-080100-
...NORTHERN AND WESTERN MISSOURI...

CITY           SKY/WX    TMP DP  RH WIND       PRES   REMARKS
KANSAS CTY INT PTCLDY    24  11  57 NW8       30.37R WCI  15
6HR MIN TEMP:  24; 6HR MAX TEMP:  27; 6HR PCP:  0.01;

KANSAS C DTWN  MOCLDY    27  15  61 NW7       30.39R WCI  19
6HR MIN TEMP:  27; 6HR MAX TEMP:  28; 6HR PCP: TRACE;

LEE`S SUMMIT   CLOUDY    25  17  72 VRB5      30.36R WCI  19
6HR MIN TEMP:  25; 6HR MAX TEMP:  28; 6HR PCP:  0.01;

ST JOSEPH      PTCLDY    23  11  60 NW9       30.39R WCI  13
6HR MIN TEMP:  23; 6HR MAX TEMP:  27;

CHILLICOTHE      N/A     26  11  52 NW12G17   30.36R WCI  16
6HR MIN TEMP:  26; 6HR MAX TEMP:  30;

KIRKSVILLE     CLOUDY    25  13  60 W10       30.30R WCI  15
6HR MIN TEMP:  25; 6HR MAX TEMP:  31;


$$
MOZ066>068-077>081-088>096-101>105-080100-
...SOUTHWEST MISSOURI...

CITY           SKY/WX    TMP DP  RH WIND       PRES   REMARKS
SPRINGFIELD    FLURRIES  31  23  72 N15       30.29R WCI  20
6HR MIN TEMP:  31; 6HR MAX TEMP:  37; 6HR PCP: TRACE;

JOPLIN         FLURRIES  29  26  89 N12G18    30.36R WCI  19
6HR MIN TEMP:  29; 6HR MAX TEMP:  36; 6HR PCP: TRACE;

BRANSON        CLOUDY    32  23  69 CALM      30.26R

$$
MOZ032>034-039>042-045>050-055>058-069>072-080100-
...CENTRAL MISSOURI...

CITY           SKY/WX    TMP DP  RH WIND       PRES   REMARKS
COLUMBIA       CLOUDY    29  22  75 W13       30.31R WCI  19
6HR MIN TEMP:  29; 6HR MAX TEMP:  35;

JEFFERSON CITY CLOUDY    30  23  75 W9        30.34R WCI  22
6HR MIN TEMP:  30; 6HR MAX TEMP:  36; 6HR PCP: TRACE;

ROLLA          FLURRIES  30  23  75 NW8       30.28R WCI  22
6HR MIN TEMP:  30; 6HR MAX TEMP:  35; 6HR PCP: TRACE;

SEDALIA        MOCLDY    27  22  81 W8        30.35R WCI  19
6HR MIN TEMP:  27; 6HR MAX TEMP:  34; 6HR PCP: TRACE;

WHITEMAN AFB   MOCLDY    27  27 100 W9        30.35R WCI  18
WARRENSBURG    CLOUDY    27  21  80 W6        30.37R WCI  20
OSAGE BEACH    FLURRIES  29  27  92 NW5       30.34R WCI  24

$$
MOZ051-052-059>065-080100-
...EAST CENTRAL MISSOURI...

CITY           SKY/WX    TMP DP  RH WIND       PRES   REMARKS
ST LOUIS INTL  CLOUDY    36  17  46 W8        30.27R WCI  30
6HR MIN TEMP:  36; 6HR MAX TEMP:  40;

SPIRIT OF STL  CLOUDY    34  21  59 W6        30.28R WCI  29
6HR MIN TEMP:  33; 6HR MAX TEMP:  39;

ST CHARLES     CLOUDY    34  22  61 NW10      30.27R WCI  26
6HR MIN TEMP:  34; 6HR MAX TEMP:  37;


$$
MOZ072>076-082>087-097>100-106>115-080100-
...SOUTH CENTRAL AND SOUTHEAST MISSOURI...

CITY           SKY/WX    TMP DP  RH WIND       PRES   REMARKS
CAPE GIRARDEAU CLOUDY    37  23  56 N7        30.26R
6HR MIN TEMP:  37; 6HR MAX TEMP:  41;

FARMINGTON     CLOUDY    35  18  49 NW9       30.26R WCI  28
6HR MIN TEMP:  35; 6HR MAX TEMP:  37;

POPLAR BLUFF   CLOUDY    40  24  53 N7        30.25R
6HR MIN TEMP:  40; 6HR MAX TEMP:  42;

WEST PLAINS    CLOUDY    35  17  47 N8        30.25R WCI  29
6HR MIN TEMP:  35; 6HR MAX TEMP:  39;


$$




USA.gov is the U.S. government's official web portal to all federal, state and local government web resources and services.